Location: Central Falls
(41.8900°N, 71.3929°W)
Time: 03:58:27
(UTC+00:00)

Vanguard 2 Rocket - Pass Details

Date: 04 December 2023
Orbit: 555 x 3309 km, 32.9° (Epoch: 01 March)

Event Time Altitude Azimuth Distance (km) Brightness Sun altitude
Rises 22:52:31 0° 270° (W) 7,140 13.0 -17.7°
Reaches altitude 10° 22:57:16 10° 267° (W) 6,227 12.3 -18.5°
Maximum altitude 23:16:52 59° 195° (SSW) 3,357 9.8 -22.1°
Enters shadow 23:29:43 17° 124° (SE) 4,466 10.0 -24.4°
Drops below altitude 10° 23:31:39 10° 121° (ESE) 4,847 - -24.8°
Sets 23:34:50 0° 117° (ESE) 5,540 - -25.4°
